QPF
0.01 0.02 0.02 0.02 0.02 0.02 0.02 0.02 0.03 0.03 0.03 0.03 0.03 0.03 0.03 0.03 0.03 0.03 0.03 0.03 0.05 0.05 0.04 0.03 0.04 0.04 0.05 0.06 0.05 0.04 0.04 0.04 0.06 0.07 0.06 0.05 0.07 0.07 0.06 0.05 0.06 0.06 0.05
0.02 0.02 0.02 0.01 0.01 0.01 0.01 0.01 0.01 0.02 0.02 0.02 0.01 0.02 0.02 0.03 0.03 0.03 0.02 0.02 0.03 0.04 0.04 0.03 0.03 0.04 0.05 0.05 0.05 0.06 0.06 0.06 0.06 0.07 0.06 0.05 0.06 0.07 0.06 0.05 0.06 0.06 0.05
0.02 0.02 0.02 0.01 0.01 0.01 0.01 0.01 0.02 0.02 0.03 0.02 0.02 0.02 0.02 0.03 0.03 0.03 0.03 0.03 0.03 0.02 0.03 0.02 0.02 0.02 0.04 0.04 0.04 0.04 0.06 0.06 0.06 0.06 0.05 0.04 0.04 0.05 0.05 0.05 0.05 0.05 0.04
0.03 0.02 0.01 0.01 0.01 0.02 0.01 0.01 0.02 0.02 0.03 0.03 0.02 0.02 0.02 0.03 0.02 0.03 0.02 0.03 0.03 0.03 0.03 0.02 0.01 0.01 0.02 0.03 0.03 0.03 0.03 0.04 0.05 0.05 0.04 0.03 0.03 0.03 0.04 0.05 0.05 0.04 0.04
0.02 0.03 0.02 0.02 0.02 0.02 0.02 0.02 0.02 0.03 0.03 0.03 0.03 0.03 0.03 0.02 0.02 0.02 0.03 0.03 0.04 0.04 0.04 0.03 0.02 0.01 0.01 0.02 0.02 0.02 0.02 0.03 0.03 0.03 0.03 0.03 0.03 0.03 0.03 0.03 0.03 0.03 0.03
0.02 0.02 0.02 0.02 0.02 0.02 0.02 0.02 0.03 0.03 0.03 0.03 0.03 0.03 0.03 0.01 0.01 0.02 0.02 0.03 0.04 0.04 0.04 0.04 0.02 0.01 0.01 0.01 0.01 0.01 0.02 0.02 0.02 0.02 0.02 0.02 0.02 0.02 0.02 0.02 0.03 0.03 0.04
0.01 0.01 0.02 0.01 0.01 0.02 0.02 0.02 0.03 0.03 0.04 0.04 0.03 0.03 0.02 0.02 0.02 0.01 0.02 0.02 0.04 0.04 0.03 0.03 0.03 0.01 0.00 0.00 0.01 0.01 0.01 0.01 0.01 0.02 0.02 0.02 0.02 0.02 0.03 0.02 0.02 0.03 0.04
0.01 0.01 0.02 0.01 0.01 0.01 0.02 0.04 0.04 0.03 0.03 0.03 0.02 0.02 0.02 0.03 0.01 0.01 0.01 0.01 0.02 0.03 0.03 0.02 0.03 0.02 0.01 0.01 0.01 0.01 0.01 0.01 0.01 0.02 0.02 0.02 0.02 0.03 0.03 0.02 0.02 0.03 0.04
0.01 0.01 0.02 0.02 0.02 0.02 0.02 0.04 0.06 0.05 0.03 0.02 0.02 0.01 0.01 0.02 0.01 0.01 0.02 0.02 0.02 0.03 0.03 0.02 0.02 0.02 0.02 0.02 0.01 0.01 0.01 0.01 0.01 0.01 0.01 0.01 0.01 0.02 0.03 0.02 0.02 0.03 0.03
0.01 0.02 0.02 0.02 0.02 0.02 0.03 0.04 0.06 0.06 0.04 0.03 0.02 0.02 0.01 0.02 0.02 0.01 0.01 0.02 0.03 0.04 0.04 0.03 0.02 0.03 0.03 0.02 0.02 0.02 0.01 0.01 0.01 0.01 0.00 0.01 0.01 0.02 0.02 0.03 0.03 0.03 0.04
0.01 0.02 0.02 0.03 0.03 0.03 0.03 0.04 0.04 0.03 0.03 0.03 0.03 0.02 0.03 0.03 0.03 0.02 0.01 0.02 0.03 0.04 0.04 0.03 0.02 0.02 0.03 0.03 0.02 0.02 0.02 0.02 0.01 0.01 0.01 0.01 0.01 0.02 0.02 0.02 0.02 0.03 0.03
0.01 0.01 0.02 0.03 0.04 0.03 0.03 0.03 0.03 0.02 0.02 0.02 0.02 0.03 0.02 0.02 0.03 0.02 0.01 0.01 0.02 0.02 0.02 0.02 0.02 0.02 0.03 0.03 0.02 0.02 0.02 0.02 0.01 0.01 0.01 0.01 0.01 0.01 0.01 0.01 0.02 0.02 0.02
0.00 0.00 0.01 0.01 0.03 0.03 0.03 0.03 0.03 0.03 0.02 0.02 0.02 0.02 0.02 0.02 0.02 0.01 0.01 0.00 0.00 0.01 0.01 0.01 0.01 0.01 0.02 0.02 0.02 0.02 0.01 0.01 0.01 0.01 0.01 0.01 0.00 0.00 0.01 0.01 0.01 0.01 0.02
0.00 0.01 0.01 0.01 0.01 0.02 0.03 0.02 0.03 0.03 0.03 0.04 0.04 0.04 0.02 0.02 0.01 0.01 0.01 0.01 0.01 0.01 0.01 0.01 0.01 0.01 0.01 0.01 0.02 0.02 0.01 0.01 0.01 0.01 0.01 0.00 0.00 0.00 0.00 0.00 0.01 0.01 0.01
0.01 0.01 0.01 0.01 0.01 0.01 0.01 0.02 0.02 0.03 0.03 0.03 0.04 0.05 0.04 0.03 0.02 0.01 0.01 0.01 0.01 0.01 0.02 0.02 0.01 0.01 0.01 0.01 0.02 0.02 0.01 0.01 0.01 0.01 0.01 0.01 0.01 0.00 0.00 0.00 0.01 0.01 0.01
0.02 0.02 0.02 0.02 0.02 0.01 0.01 0.01 0.01 0.01 0.02 0.02 0.02 0.02 0.02 0.03 0.03 0.02 0.02 0.02 0.01 0.01 0.01 0.02 0.02 0.02 0.02 0.02 0.02 0.01 0.01 0.01 0.01 0.01 0.01 0.01 0.01 0.01 0.01 0.01 0.01 0.01 0.01
0.01 0.02 0.02 0.02 0.02 0.01 0.00 0.00 0.00 0.00 0.00 0.01 0.01 0.01 0.01 0.01 0.01 0.02 0.02 0.02 0.01 0.01 0.01 0.02 0.02 0.02 0.02 0.02 0.02 0.02 0.02 0.01 0.01 0.01 0.01 0.00 0.00 0.00 0.00 0.01 0.01 0.01 0.01
0.01 0.01 0.01 0.01 0.01 0.01 0.01 0.01 0.00 0.00 0.00 0.00 0.00 0.01 0.01 0.00 0.01 0.01 0.01 0.02 0.02 0.02 0.02 0.02 0.02 0.03 0.02 0.02 0.01 0.01 0.01 0.01 0.01 0.01 0.01 0.00 0.00 0.01 0.01 0.01 0.01 0.01 0.01
0.01 0.01 0.01 0.01 0.01 0.01 0.01 0.01 0.00 0.00 0.00 0.00 0.00 0.00 0.00 0.00 0.01 0.01 0.01 0.02 0.02 0.02 0.02 0.01 0.01 0.02 0.01 0.01 0.01 0.01 0.01 0.01 0.01 0.02 0.01 0.01 0.01 0.01 0.01 0.01 0.01 0.01 0.02
0.02 0.01 0.01 0.02 0.01 0.01 0.01 0.01 0.00 0.00 0.00 0.00 0.00 0.00 0.00 0.01 0.02 0.01 0.01 0.01 0.02 0.01 0.01 0.01 0.01 0.01 0.01 0.01 0.01 0.01 0.01 0.01 0.01 0.01 0.01 0.01 0.01 0.01 0.01 0.02 0.02 0.02 0.02
0.02 0.02 0.02 0.02 0.02 0.02 0.01 0.01 0.01 0.01 0.01 0.01 0.01 0.01 0.01 0.01 0.02 0.03 0.02 0.02 0.02 0.01 0.01 0.01 0.01 0.00 0.00 0.00 0.00 0.00 0.00 0.00 0.00 0.00 0.01 0.01 0.01 0.01 0.01 0.02 0.03 0.02 0.02
0.02 0.02 0.01 0.02 0.02 0.02 0.01 0.01 0.01 0.01 0.01 0.01 0.01 0.01 0.01 0.01 0.01 0.02 0.02 0.02 0.02 0.02 0.02 0.01 0.01 0.01 0.00 0.00 0.00 0.00 0.00 0.00 0.00 0.01 0.01 0.01 0.01 0.01 0.01 0.02 0.02 0.02 0.02
0.03 0.02 0.02 0.01 0.01 0.01 0.01 0.01 0.01 0.01 0.01 0.01 0.01 0.01 0.01 0.01 0.01 0.02 0.02 0.02 0.02 0.03 0.03 0.02 0.02 0.01 0.01 0.00 0.00 0.00 0.00 0.00 0.00 0.00 0.01 0.01 0.01 0.02 0.01 0.02 0.02 0.03 0.04
0.04 0.03 0.03 0.02 0.01 0.01 0.01 0.01 0.01 0.01 0.01 0.01 0.01 0.01 0.01 0.01 0.02 0.03 0.03 0.02 0.02 0.02 0.03 0.03 0.03 0.02 0.01 0.00 0.00 0.00 0.00 0.00 0.00 0.00 0.00 0.01 0.02 0.02 0.02 0.01 0.02 0.02 0.03
0.05 0.04 0.04 0.03 0.03 0.03 0.02 0.02 0.01 0.01 0.01 0.01 0.02 0.02 0.02 0.02 0.02 0.02 0.03 0.03 0.03 0.02 0.02 0.02 0.03 0.02 0.01 0.01 0.01 0.00 0.00 0.00 0.00 0.00 0.01 0.02 0.02 0.01 0.01 0.01 0.01 0.02 0.03
0.02 0.03 0.03 0.03 0.02 0.02 0.02 0.01 0.01 0.01 0.01 0.02 0.02 0.02 0.02 0.01 0.01 0.01 0.02 0.03 0.03 0.03 0.02 0.02 0.02 0.03 0.02 0.01 0.01 0.00 0.00 0.00 0.00 0.00 0.01 0.02 0.01 0.01 0.01 0.01 0.01 0.01 0.02
MSLP
1003.46 1003.88 1004.27 1004.60 1004.87 1005.07 1005.22 1005.35 1005.49 1005.64 1005.83 1006.04 1006.28 1006.51 1006.72 1006.89 1007.02 1007.11 1007.19 1007.27 1007.38 1007.55 1007.79 1008.11 1008.49 1008.92 1009.37 1009.82 1010.25 1010.63 1010.96 1011.23 1011.47 1011.68 1011.88 1012.10 1012.34 1012.61 1012.93 1013.29 1013.68 1014.09 1014.51
1003.48 1003.90 1004.30 1004.64 1004.92 1005.12 1005.28 1005.40 1005.50 1005.62 1005.76 1005.93 1006.11 1006.28 1006.44 1006.57 1006.66 1006.72 1006.76 1006.81 1006.88 1007.00 1007.19 1007.45 1007.79 1008.17 1008.60 1009.04 1009.47 1009.89 1010.27 1010.61 1010.92 1011.20 1011.47 1011.73 1012.00 1012.28 1012.58 1012.89 1013.22 1013.56 1013.92
1003.49 1003.91 1004.31 1004.66 1004.95 1005.17 1005.34 1005.46 1005.56 1005.66 1005.76 1005.88 1006.02 1006.14 1006.26 1006.34 1006.39 1006.41 1006.41 1006.42 1006.44 1006.51 1006.64 1006.84 1007.12 1007.46 1007.85 1008.28 1008.72 1009.17 1009.60 1010.02 1010.41 1010.77 1011.12 1011.44 1011.75 1012.04 1012.33 1012.60 1012.87 1013.15 1013.42
1003.43 1003.84 1004.24 1004.61 1004.92 1005.16 1005.35 1005.49 1005.60 1005.70 1005.79 1005.89 1005.99 1006.08 1006.16 1006.20 1006.21 1006.19 1006.14 1006.10 1006.07 1006.08 1006.15 1006.29 1006.51 1006.80 1007.15 1007.57 1008.02 1008.50 1008.98 1009.47 1009.94 1010.39 1010.81 1011.20 1011.56 1011.87 1012.15 1012.39 1012.61 1012.81 1013.01
1003.29 1003.68 1004.08 1004.46 1004.79 1005.06 1005.28 1005.45 1005.59 1005.71 1005.81 1005.91 1006.00 1006.07 1006.12 1006.13 1006.10 1006.04 1005.95 1005.86 1005.77 1005.73 1005.74 1005.82 1005.99 1006.23 1006.56 1006.96 1007.42 1007.92 1008.46 1009.00 1009.54 1010.06 1010.55 1010.99 1011.38 1011.72 1011.99 1012.20 1012.38 1012.52 1012.64
1003.10 1003.47 1003.85 1004.22 1004.56 1004.86 1005.11 1005.32 1005.50 1005.65 1005.78 1005.90 1006.00 1006.07 1006.10 1006.09 1006.04 1005.95 1005.83 1005.69 1005.57 1005.48 1005.44 1005.48 1005.61 1005.82 1006.13 1006.52 1006.99 1007.51 1008.07 1008.65 1009.24 1009.80 1010.33 1010.81 1011.22 1011.55 1011.81 1012.00 1012.13 1012.21 1012.26
1002.93 1003.25 1003.60 1003.95 1004.28 1004.58 1004.85 1005.09 1005.30 1005.49 1005.66 1005.81 1005.93 1006.02 1006.06 1006.05 1005.99 1005.89 1005.75 1005.60 1005.45 1005.34 1005.29 1005.31 1005.41 1005.61 1005.91 1006.30 1006.76 1007.29 1007.87 1008.46 1009.06 1009.63 1010.16 1010.64 1011.04 1011.36 1011.59 1011.75 1011.84 1011.87 1011.86
1002.86 1003.12 1003.41 1003.71 1004.01 1004.29 1004.55 1004.80 1005.03 1005.24 1005.44 1005.62 1005.77 1005.88 1005.95 1005.96 1005.91 1005.82 1005.70 1005.55 1005.42 1005.32 1005.27 1005.30 1005.41 1005.62 1005.93 1006.32 1006.78 1007.30 1007.86 1008.44 1009.00 1009.55 1010.04 1010.48 1010.84 1011.12 1011.31 1011.43 1011.48 1011.48 1011.43
1002.94 1003.13 1003.35 1003.58 1003.81 1004.04 1004.27 1004.49 1004.71 1004.93 1005.14 1005.34 1005.51 1005.65 1005.74 1005.79 1005.78 1005.72 1005.64 1005.53 1005.44 1005.38 1005.37 1005.44 1005.58 1005.82 1006.13 1006.53 1006.99 1007.49 1008.01 1008.54 1009.05 1009.52 1009.95 1010.31 1010.60 1010.82 1010.97 1011.05 1011.08 1011.05 1010.99
1003.23 1003.34 1003.47 1003.61 1003.76 1003.90 1004.06 1004.22 1004.40 1004.59 1004.79 1004.99 1005.17 1005.34 1005.46 1005.54 1005.58 1005.58 1005.55 1005.51 1005.48 1005.48 1005.53 1005.65 1005.84 1006.11 1006.45 1006.85 1007.29 1007.76 1008.23 1008.68 1009.11 1009.50 1009.83 1010.10 1010.31 1010.47 1010.56 1010.61 1010.62 1010.60 1010.55
1003.72 1003.75 1003.79 1003.83 1003.87 1003.92 1003.98 1004.06 1004.17 1004.30 1004.46 1004.64 1004.82 1004.99 1005.14 1005.25 1005.34 1005.39 1005.43 1005.46 1005.50 1005.57 1005.68 1005.86 1006.09 1006.39 1006.74 1007.14 1007.56 1007.98 1008.39 1008.76 1009.10 1009.39 1009.62 1009.80 1009.94 1010.03 1010.08 1010.11 1010.12 1010.12 1010.10
1004.36 1004.33 1004.28 1004.22 1004.15 1004.09 1004.05 1004.03 1004.05 1004.11 1004.21 1004.35 1004.50 1004.67 1004.83 1004.97 1005.10 1005.20 1005.29 1005.37 1005.47 1005.60 1005.76 1005.97 1006.23 1006.54 1006.89 1007.26 1007.64 1008.01 1008.35 1008.66 1008.91 1009.11 1009.26 1009.37 1009.44 1009.48 1009.51 1009.54 1009.56 1009.59 1009.62
1005.10 1005.01 1004.89 1004.74 1004.58 1004.42 1004.27 1004.16 1004.09 1004.07 1004.10 1004.18 1004.30 1004.44 1004.60 1004.75 1004.89 1005.02 1005.14 1005.26 1005.39 1005.53 1005.71 1005.92 1006.18 1006.47 1006.79 1007.12 1007.45 1007.76 1008.04 1008.27 1008.46 1008.60 1008.69 1008.75 1008.79 1008.81 1008.84 1008.87 1008.92 1008.99 1009.07
1005.84 1005.71 1005.53 1005.32 1005.09 1004.85 1004.62 1004.42 1004.27 1004.17 1004.14 1004.16 1004.24 1004.35 1004.48 1004.62 1004.76 1004.89 1005.01 1005.12 1005.24 1005.37 1005.52 1005.69 1005.90 1006.13 1006.39 1006.66 1006.93 1007.18 1007.40 1007.59 1007.73 1007.84 1007.91 1007.95 1007.98 1008.01 1008.05 1008.11 1008.19 1008.29 1008.40
1006.50 1006.35 1006.14 1005.89 1005.61 1005.32 1005.04 1004.78 1004.57 1004.42 1004.33 1004.31 1004.34 1004.41 1004.51 1004.62 1004.72 1004.82 1004.91 1004.98 1005.05 1005.11 1005.19 1005.29 1005.41 1005.56 1005.73 1005.91 1006.11 1006.30 1006.48 1006.63 1006.76 1006.86 1006.93 1006.99 1007.04 1007.09 1007.16 1007.24 1007.34 1007.46 1007.58
1007.03 1006.87 1006.65 1006.38 1006.08 1005.77 1005.46 1005.18 1004.94 1004.75 1004.63 1004.56 1004.56 1004.59 1004.64 1004.71 1004.77 1004.81 1004.84 1004.84 1004.82 1004.80 1004.78 1004.77 1004.78 1004.82 1004.89 1004.98 1005.10 1005.24 1005.37 1005.51 1005.64 1005.75 1005.85 1005.93 1006.01 1006.10 1006.18 1006.28 1006.38 1006.49 1006.61
1007.39 1007.23 1007.01 1006.75 1006.46 1006.15 1005.84 1005.56 1005.31 1005.11 1004.97 1004.88 1004.83 1004.83 1004.84 1004.85 1004.86 1004.84 1004.79 1004.71 1004.60 1004.47 1004.34 1004.22 1004.12 1004.04 1004.01 1004.02 1004.06 1004.14 1004.25 1004.37 1004.50 1004.63 1004.76 1004.87 1004.98 1005.08 1005.17 1005.26 1005.35 1005.43 1005.51
1007.60 1007.44 1007.23 1006.98 1006.71 1006.42 1006.13 1005.86 1005.63 1005.43 1005.28 1005.18 1005.11 1005.07 1005.03 1005.00 1004.94 1004.86 1004.73 1004.58 1004.38 1004.17 1003.94 1003.72 1003.52 1003.35 1003.23 1003.16 1003.14 1003.17 1003.25 1003.35 1003.48 1003.62 1003.76 1003.89 1004.00 1004.10 1004.18 1004.25 1004.30 1004.33 1004.36
1007.70 1007.53 1007.33 1007.10 1006.84 1006.58 1006.33 1006.08 1005.87 1005.68 1005.53 1005.42 1005.32 1005.25 1005.17 1005.09 1004.98 1004.84 1004.66 1004.44 1004.19 1003.91 1003.62 1003.33 1003.07 1002.84 1002.65 1002.52 1002.45 1002.44 1002.48 1002.56 1002.67 1002.79 1002.92 1003.04 1003.13 1003.21 1003.26 1003.28 1003.28 1003.26 1003.22
1007.75 1007.57 1007.36 1007.14 1006.91 1006.68 1006.45 1006.23 1006.04 1005.86 1005.70 1005.57 1005.45 1005.34 1005.22 1005.09 1004.94 1004.76 1004.54 1004.29 1004.01 1003.70 1003.39 1003.08 1002.79 1002.53 1002.32 1002.15 1002.05 1002.00 1002.00 1002.03 1002.10 1002.19 1002.27 1002.35 1002.40 1002.43 1002.43 1002.40 1002.34 1002.27 1002.20
1007.80 1007.60 1007.39 1007.18 1006.96 1006.75 1006.54 1006.34 1006.15 1005.98 1005.81 1005.65 1005.50 1005.35 1005.18 1005.01 1004.82 1004.61 1004.37 1004.12 1003.84 1003.55 1003.25 1002.96 1002.68 1002.43 1002.21 1002.04 1001.91 1001.82 1001.77 1001.75 1001.76 1001.78 1001.80 1001.81 1001.80 1001.76 1001.71 1001.63 1001.53 1001.43 1001.34
1007.92 1007.71 1007.49 1007.27 1007.06 1006.86 1006.66 1006.47 1006.28 1006.09 1005.90 1005.70 1005.50 1005.30 1005.08 1004.87 1004.64 1004.41 1004.17 1003.92 1003.67 1003.42 1003.17 1002.93 1002.69 1002.48 1002.28 1002.10 1001.95 1001.83 1001.73 1001.65 1001.58 1001.52 1001.46 1001.39 1001.31 1001.22 1001.11 1000.99 1000.88 1000.77 1000.69
1008.16 1007.92 1007.69 1007.47 1007.25 1007.05 1006.86 1006.66 1006.45 1006.24 1006.00 1005.76 1005.51 1005.24 1004.97 1004.71 1004.45 1004.19 1003.96 1003.73 1003.52 1003.32 1003.13 1002.94 1002.76 1002.59 1002.42 1002.26 1002.09 1001.94 1001.78 1001.64 1001.49 1001.35 1001.20 1001.06 1000.92 1000.77 1000.64 1000.51 1000.40 1000.32 1000.28
1008.53 1008.27 1008.02 1007.79 1007.57 1007.36 1007.16 1006.94 1006.71 1006.45 1006.17 1005.87 1005.55 1005.22 1004.89 1004.57 1004.27 1004.00 1003.75 1003.55 1003.37 1003.22 1003.08 1002.96 1002.83 1002.70 1002.56 1002.40 1002.23 1002.04 1001.84 1001.63 1001.41 1001.20 1000.99 1000.80 1000.61 1000.44 1000.30 1000.19 1000.11 1000.08 1000.09
1009.03 1008.75 1008.48 1008.24 1008.01 1007.78 1007.55 1007.31 1007.04 1006.74 1006.40 1006.04 1005.65 1005.25 1004.86 1004.49 1004.14 1003.84 1003.59 1003.39 1003.24 1003.12 1003.02 1002.94 1002.86 1002.76 1002.64 1002.49 1002.30 1002.09 1001.85 1001.60 1001.33 1001.07 1000.83 1000.60 1000.40 1000.24 1000.12 1000.04 1000.02 1000.04 1000.12
1009.62 1009.32 1009.04 1008.77 1008.52 1008.26 1008.00 1007.72 1007.41 1007.05 1006.66 1006.24 1005.78 1005.32 1004.87 1004.45 1004.06 1003.74 1003.47 1003.27 1003.12 1003.03 1002.96 1002.90 1002.84 1002.76 1002.65 1002.50 1002.31 1002.08 1001.82 1001.55 1001.26 1000.99 1000.73 1000.51 1000.33 1000.20 1000.12 1000.09 1000.12 1000.21 1000.34
Thickness
5706 5702 5699 5696 5693 5691 5688 5686 5684 5681 5679 5678 5676 5673 5671 5669 5667 5665 5665 5663 5662 5662 5661 5660 5659 5659 5659 5660 5660 5660 5660 5660 5657 5659 5661 5660 5657 5655 5654 5653 5652 5651 5651
5701 5698 5694 5691 5689 5686 5684 5682 5679 5677 5675 5673 5671 5669 5667 5665 5663 5661 5659 5659 5657 5656 5656 5655 5655 5655 5653 5654 5654 5654 5654 5653 5652 5650 5652 5652 5650 5648 5647 5645 5646 5646 5644
5698 5694 5690 5687 5685 5682 5679 5677 5675 5673 5671 5669 5667 5665 5663 5661 5660 5658 5656 5654 5653 5652 5651 5650 5650 5649 5648 5648 5647 5648 5648 5649 5646 5645 5644 5644 5643 5642 5640 5639 5640 5638 5638
5693 5690 5686 5683 5681 5678 5676 5674 5672 5670 5668 5666 5664 5662 5661 5659 5657 5655 5653 5651 5649 5647 5646 5645 5644 5643 5642 5641 5640 5640 5640 5640 5639 5639 5638 5637 5636 5635 5633 5632 5632 5632 5631
5689 5685 5682 5680 5677 5674 5672 5670 5668 5667 5666 5663 5661 5659 5657 5656 5654 5652 5650 5647 5645 5642 5641 5640 5638 5636 5634 5633 5634 5634 5633 5633 5633 5633 5631 5631 5629 5626 5625 5625 5625 5624 5624
5684 5681 5678 5675 5672 5670 5668 5666 5664 5663 5661 5659 5657 5655 5653 5652 5647 5644 5643 5642 5640 5638 5636 5635 5633 5631 5628 5625 5624 5623 5622 5623 5624 5623 5623 5621 5618 5618 5617 5617 5617 5617 5615
5680 5677 5675 5672 5668 5666 5664 5662 5659 5657 5656 5653 5652 5650 5647 5644 5640 5638 5636 5636 5635 5633 5631 5630 5629 5628 5624 5623 5620 5617 5615 5613 5612 5613 5613 5611 5611 5611 5608 5608 5607 5606 5605
5676 5673 5671 5668 5664 5662 5659 5657 5654 5653 5651 5649 5647 5645 5643 5639 5634 5632 5630 5631 5630 5628 5626 5624 5622 5621 5620 5617 5616 5614 5612 5610 5607 5606 5604 5603 5602 5600 5599 5599 5598 5599 5600
5672 5669 5667 5664 5661 5658 5655 5652 5650 5648 5646 5645 5643 5641 5638 5634 5629 5627 5625 5628 5626 5624 5622 5619 5618 5615 5610 5608 5609 5608 5606 5604 5600 5598 5596 5594 5592 5591 5590 5591 5593 5595 5596
5668 5665 5663 5660 5657 5654 5651 5648 5646 5644 5642 5641 5640 5637 5634 5631 5625 5623 5621 5625 5623 5621 5618 5614 5609 5607 5603 5601 5603 5602 5600 5599 5597 5596 5593 5591 5590 5589 5585 5584 5586 5587 5588
5665 5662 5659 5655 5652 5650 5647 5644 5642 5641 5639 5637 5635 5633 5630 5627 5622 5619 5616 5619 5618 5617 5615 5612 5607 5600 5597 5595 5595 5595 5593 5591 5593 5593 5593 5592 5590 5588 5586 5583 5580 5579 5579
5660 5657 5654 5651 5649 5647 5643 5640 5639 5637 5635 5633 5631 5629 5628 5624 5619 5615 5612 5610 5609 5610 5609 5607 5602 5595 5593 5591 5590 5589 5586 5585 5590 5591 5590 5588 5587 5585 5582 5579 5575 5573 5571
5655 5652 5649 5647 5644 5642 5640 5637 5636 5634 5634 5632 5630 5628 5626 5623 5618 5612 5609 5606 5604 5605 5605 5599 5595 5592 5589 5589 5587 5585 5584 5586 5587 5586 5585 5583 5582 5579 5576 5573 5571 5569 5567
5648 5646 5644 5642 5640 5638 5637 5636 5634 5632 5630 5628 5626 5625 5623 5620 5618 5613 5610 5607 5601 5602 5601 5596 5592 5590 5589 5587 5586 5586 5585 5584 5583 5581 5580 5579 5577 5575 5573 5571 5570 5567 5565
5643 5642 5641 5639 5637 5634 5633 5631 5630 5627 5624 5621 5622 5621 5618 5616 5610 5604 5604 5604 5602 5600 5597 5598 5597 5595 5593 5592 5589 5587 5584 5582 5580 5578 5576 5575 5574 5572 5570 5568 5565 5563 5561
5639 5638 5638 5637 5635 5633 5631 5627 5621 5619 5615 5613 5610 5609 5610 5606 5602 5599 5597 5595 5593 5591 5592 5596 5595 5594 5592 5591 5588 5586 5583 5580 5578 5575 5573 5571 5569 5568 5566 5564 5561 5558 5556
5636 5634 5634 5633 5632 5630 5628 5625 5622 5616 5611 5609 5606 5604 5602 5599 5597 5595 5593 5590 5589 5587 5592 5594 5593 5591 5589 5587 5585 5583 5581 5578 5574 5571 5569 5567 5565 5563 5561 5559 5557 5553 5551
5631 5629 5628 5628 5628 5627 5625 5623 5622 5619 5616 5613 5606 5601 5598 5596 5594 5592 5590 5588 5592 5591 5594 5593 5590 5588 5586 5584 5582 5580 5577 5575 5571 5568 5565 5563 5561 5559 5557 5554 5551 5548 5545
5627 5626 5624 5624 5624 5623 5622 5621 5620 5617 5615 5613 5611 5603 5596 5594 5591 5589 5588 5593 5595 5593 5592 5590 5588 5586 5584 5581 5579 5576 5573 5570 5566 5563 5561 5558 5556 5554 5552 5550 5547 5543 5539
5621 5617 5617 5619 5620 5619 5618 5617 5616 5614 5611 5609 5607 5604 5599 5596 5597 5594 5591 5592 5592 5591 5589 5586 5584 5582 5580 5578 5575 5572 5569 5566 5562 5560 5557 5554 5552 5550 5548 5546 5544 5541 5539
5618 5615 5609 5613 5615 5614 5613 5612 5611 5609 5607 5606 5604 5600 5592 5596 5595 5593 5592 5590 5589 5587 5584 5582 5581 5578 5577 5574 5572 5568 5564 5562 5558 5555 5552 5550 5548 5546 5543 5542 5540 5537 5535
5613 5611 5610 5609 5608 5607 5606 5606 5606 5604 5603 5602 5600 5597 5588 5591 5592 5590 5588 5585 5583 5581 5579 5578 5577 5574 5571 5569 5566 5563 5560 5556 5553 5549 5547 5545 5543 5542 5540 5537 5535 5533 5530
5607 5606 5604 5603 5602 5599 5600 5601 5600 5599 5599 5597 5595 5593 5589 5587 5586 5583 5582 5580 5577 5575 5573 5571 5569 5568 5565 5562 5560 5557 5554 5550 5547 5543 5541 5540 5539 5537 5535 5533 5531 5529 5527
5602 5601 5600 5599 5598 5597 5596 5596 5595 5595 5594 5592 5589 5588 5585 5582 5580 5578 5576 5574 5572 5569 5567 5566 5564 5561 5558 5556 5554 5552 5547 5543 5539 5538 5536 5535 5534 5534 5532 5531 5529 5527 5525
5597 5596 5596 5594 5593 5592 5591 5590 5590 5590 5588 5586 5584 5583 5581 5578 5574 5572 5571 5569 5566 5565 5563 5561 5559 5556 5553 5551 5548 5545 5540 5536 5533 5531 5531 5532 5531 5530 5529 5528 5526 5524 5522
5592 5591 5590 5589 5587 5586 5585 5585 5584 5584 5583 5582 5580 5578 5575 5573 5570 5568 5566 5564 5562 5560 5558 5557 5554 5551 5548 5546 5543 5539 5534 5531 5528 5526 5526 5527 5528 5527 5525 5524 5523 5522 5520